Flag for Denmark Weather past 2 weeks in Horsens, Denmark

43 °F

Sprinkles. Fog.

Feels Like: 35 °F
Forecast: 40 / 45 °F
Wind: 16 mph from South

Location: Billund Lufthavn

Current Time: Nov 28, 2015 at 12:41:31 AM

Latest Report: Nov 27, 2015 at 11:50 PM

Visibility: 1 mi

Pressure: 29.53 "Hg

Humidity: 93%

Dew point: 41 °F

Location of HorsensLocation

Historic Weather in Horsens — Graph


Horsens temperature yesterday

Maximum temperature yesterday: 46 °F (at 5:50 AM)
Minimum temperature yesterday: 43 °F (at 12:20 AM)
Average temperature yesterday: 45 °F

Past Weeks' High & Low Weather Summary

High55 °F (Nov 16, 11:50 AM)100% (Nov 12, 11:20 PM)30.07 "Hg (Nov 12, 11:20 PM)
Low16 °F (Nov 23, 8:20 AM)62% (Nov 13, 2:50 PM)29.09 "Hg (Nov 18, 2:20 AM)
Average42 °F91%29.64 "Hg
* Reported Nov 12 11:20 PM — Nov 27 11:20 PM, Horsens, Weather by CustomWeather, © 2015

Note: Actual official high and low records may vary slightly from our data, if they occured in-between our weather recording intervals... More about our weather records


Horsens weather history for previous 24 hours

Time TempWeatherWind HumidityBarometerVisibility
11:20 PM
Fri, Nov 27
43 °FFog.16 mph93%29.53 "Hg1 mi
10:50 PM43 °FDrizzle. Fog.16 mph93%29.56 "Hg1 mi
9:50 PM43 °FFog.15 mph100%29.59 "Hg1 mi
9:20 PM43 °FFog.17 mph100%29.59 "Hg1 mi
8:50 PM43 °FDrizzle. Fog.16 mph100%29.62 "Hg2 mi
8:20 PM43 °FDrizzle. Fog.15 mph100%29.62 "Hg1 mi
7:50 PM43 °FDrizzle. Fog.15 mph100%29.65 "Hg1 mi
7:20 PM43 °FDrizzle. Fog.15 mph100%29.65 "Hg1 mi
6:20 PM43 °FFog.16 mph100%29.65 "Hg2 mi
5:50 PM43 °FFog.16 mph100%29.68 "Hg2 mi
5:20 PM43 °FFog.16 mph100%29.68 "Hg1 mi
4:50 PM43 °FSprinkles. Fog.17 mph100%29.71 "Hg1 mi
4:20 PM45 °FSprinkles. Fog.17 mph93%29.71 "Hg2 mi
3:50 PM45 °FDrizzle. Fog.16 mph93%29.71 "Hg1 mi
3:20 PM45 °FDrizzle. Fog.16 mph93%29.74 "Hg2 mi
2:50 PM45 °FDrizzle. Fog.16 mph100%29.74 "Hg2 mi
2:20 PM45 °FDrizzle. Fog.16 mph100%29.74 "Hg2 mi
1:50 PM45 °FDrizzle. Fog.15 mph100%29.74 "Hg2 mi
1:20 PM46 °FSprinkles. Fog.15 mph93%29.77 "Hg1 mi
12:50 PM46 °FFog.15 mph93%29.77 "Hg2 mi
12:20 PM46 °FDrizzle. Fog.15 mph93%29.77 "Hg2 mi
11:50 AM46 °FLight rain. Fog.15 mph93%29.80 "Hg1 mi
11:20 AM46 °FFog.15 mph93%29.80 "Hg2 mi
10:50 AM46 °FFog.14 mph93%29.80 "Hg1 mi
10:20 AM46 °FFog.15 mph93%29.83 "Hg2 mi
9:50 AM46 °FFog.13 mph93%29.83 "Hg3 mi
9:20 AM46 °FLow clouds.17 mph93%29.83 "HgN/A
8:50 AM46 °FLow clouds.15 mph93%29.83 "HgN/A
7:50 AM46 °FLow clouds.14 mph93%29.86 "HgN/A
7:20 AM46 °FLow clouds.13 mph93%29.86 "HgN/A
6:50 AM46 °FPartly cloudy.12 mph87%29.86 "HgN/A
6:20 AM46 °FPassing clouds.9 mph87%29.86 "HgN/A
5:50 AM46 °FPartly cloudy.8 mph87%29.89 "HgN/A
4:50 AM45 °FLow clouds.12 mph100%29.92 "HgN/A
4:20 AM45 °FPassing clouds.7 mph93%29.92 "HgN/A
3:50 AM45 °FPartly cloudy.10 mph93%29.92 "HgN/A
3:20 AM45 °FPassing clouds.8 mph93%29.92 "HgN/A
2:50 AM45 °FPartly cloudy.10 mph93%29.95 "HgN/A
2:20 AM45 °FPassing clouds.10 mph93%29.95 "HgN/A
1:50 AM43 °FPassing clouds.9 mph100%29.95 "HgN/A
1:20 AM43 °FLow clouds.9 mph100%29.95 "HgN/A
12:50 AM43 °FSprinkles. Passing clouds.9 mph100%29.98 "HgN/A
12:20 AM43 °FLight rain. Passing clouds.10 mph93%29.98 "HgN/A
Weather by CustomWeather, © 2015

See weather overviewHow to use our weather pages